QPF
0.00 0.00 0.00 0.00 0.00 0.00 0.00 0.00 0.00 0.00 0.00 0.00 0.00 0.00 0.00 0.01 0.01 0.01 0.01 0.00 0.01 0.01 0.01 0.01 0.01 0.01 0.01 0.01 0.02 0.03 0.03 0.04 0.04 0.03 0.01 0.02 0.02 0.02 0.02 0.02 0.03 0.03 0.02
0.00 0.00 0.00 0.00 0.00 0.00 0.00 0.00 0.00 0.00 0.00 0.00 0.00 0.00 0.00 0.00 0.00 0.00 0.01 0.01 0.01 0.01 0.01 0.01 0.00 0.00 0.01 0.01 0.01 0.02 0.03 0.03 0.03 0.03 0.02 0.01 0.02 0.02 0.01 0.01 0.01 0.02 0.02
0.00 0.00 0.00 0.00 0.00 0.00 0.00 0.00 0.00 0.00 0.00 0.00 0.00 0.01 0.01 0.01 0.00 0.00 0.00 0.01 0.01 0.01 0.01 0.01 0.01 0.00 0.01 0.01 0.01 0.02 0.02 0.03 0.04 0.04 0.04 0.04 0.02 0.02 0.02 0.01 0.01 0.02 0.02
0.00 0.00 0.00 0.00 0.00 0.00 0.00 0.00 0.00 0.00 0.00 0.00 0.00 0.01 0.01 0.01 0.01 0.00 0.00 0.00 0.00 0.00 0.00 0.01 0.01 0.01 0.01 0.01 0.02 0.02 0.01 0.03 0.04 0.04 0.04 0.05 0.04 0.03 0.03 0.03 0.02 0.03 0.03
0.00 0.00 0.00 0.00 0.00 0.00 0.00 0.00 0.00 0.00 0.00 0.00 0.00 0.00 0.00 0.01 0.01 0.01 0.00 0.00 0.00 0.00 0.00 0.00 0.00 0.01 0.01 0.01 0.01 0.02 0.02 0.03 0.04 0.03 0.03 0.04 0.06 0.05 0.03 0.03 0.03 0.03 0.03
0.00 0.00 0.00 0.00 0.00 0.00 0.00 0.00 0.00 0.00 0.00 0.00 0.00 0.00 0.00 0.00 0.01 0.01 0.00 0.01 0.00 0.00 0.00 0.00 0.00 0.00 0.01 0.01 0.01 0.02 0.02 0.02 0.03 0.04 0.03 0.04 0.05 0.05 0.04 0.04 0.05 0.05 0.04
0.00 0.00 0.00 0.00 0.00 0.00 0.00 0.00 0.00 0.00 0.00 0.00 0.00 0.00 0.00 0.00 0.01 0.00 0.00 0.00 0.00 0.00 0.00 0.00 0.00 0.00 0.00 0.00 0.00 0.01 0.01 0.01 0.02 0.03 0.04 0.04 0.05 0.05 0.05 0.05 0.05 0.05 0.04
0.00 0.00 0.00 0.00 0.00 0.00 0.00 0.00 0.00 0.00 0.00 0.00 0.00 0.00 0.00 0.00 0.00 0.00 0.00 0.00 0.00 0.00 0.00 0.00 0.00 0.01 0.00 0.00 0.00 0.01 0.02 0.02 0.01 0.01 0.02 0.03 0.04 0.04 0.05 0.04 0.05 0.05 0.05
0.00 0.00 0.00 0.00 0.00 0.00 0.00 0.00 0.00 0.00 0.00 0.00 0.00 0.00 0.00 0.00 0.00 0.00 0.00 0.00 0.01 0.00 0.00 0.00 0.00 0.01 0.00 0.00 0.01 0.01 0.02 0.02 0.01 0.01 0.01 0.02 0.02 0.03 0.04 0.05 0.05 0.05 0.04
0.00 0.00 0.00 0.00 0.00 0.00 0.00 0.00 0.00 0.00 0.00 0.00 0.00 0.00 0.00 0.00 0.00 0.00 0.00 0.01 0.01 0.00 0.00 0.00 0.00 0.00 0.00 0.00 0.00 0.01 0.01 0.01 0.01 0.01 0.01 0.01 0.01 0.02 0.02 0.04 0.06 0.06 0.05
0.00 0.00 0.00 0.00 0.00 0.00 0.00 0.00 0.00 0.00 0.00 0.00 0.00 0.00 0.00 0.00 0.00 0.00 0.00 0.00 0.00 0.00 0.00 0.00 0.00 0.00 0.00 0.00 0.00 0.01 0.01 0.01 0.01 0.01 0.01 0.01 0.01 0.02 0.02 0.03 0.05 0.06 0.07
0.00 0.00 0.00 0.00 0.00 0.00 0.00 0.00 0.00 0.00 0.00 0.00 0.00 0.00 0.00 0.00 0.00 0.00 0.00 0.00 0.00 0.00 0.00 0.00 0.00 0.00 0.00 0.00 0.00 0.00 0.00 0.00 0.01 0.02 0.02 0.02 0.02 0.02 0.03 0.03 0.04 0.04 0.04
0.00 0.00 0.00 0.00 0.00 0.00 0.00 0.00 0.00 0.00 0.00 0.00 0.00 0.00 0.00 0.00 0.00 0.00 0.00 0.00 0.00 0.00 0.00 0.00 0.00 0.00 0.00 0.00 0.00 0.00 0.00 0.01 0.01 0.01 0.02 0.03 0.03 0.04 0.04 0.04 0.04 0.04 0.04
0.00 0.00 0.00 0.00 0.00 0.00 0.00 0.00 0.00 0.00 0.00 0.00 0.00 0.00 0.00 0.00 0.00 0.00 0.00 0.00 0.00 0.00 0.00 0.00 0.00 0.00 0.00 0.00 0.00 0.00 0.00 0.00 0.01 0.01 0.01 0.01 0.02 0.03 0.05 0.06 0.06 0.06 0.05
0.00 0.00 0.00 0.00 0.00 0.00 0.00 0.00 0.00 0.00 0.00 0.00 0.00 0.00 0.00 0.00 0.00 0.00 0.00 0.00 0.00 0.00 0.00 0.00 0.00 0.00 0.00 0.00 0.00 0.00 0.00 0.00 0.00 0.01 0.01 0.01 0.02 0.03 0.04 0.04 0.05 0.05 0.06
0.00 0.00 0.00 0.00 0.00 0.00 0.00 0.00 0.00 0.00 0.00 0.00 0.00 0.00 0.00 0.00 0.00 0.00 0.00 0.00 0.00 0.00 0.00 0.00 0.00 0.00 0.00 0.00 0.00 0.00 0.00 0.00 0.01 0.00 0.00 0.01 0.01 0.01 0.02 0.03 0.03 0.03 0.03
0.00 0.00 0.00 0.00 0.00 0.00 0.00 0.00 0.00 0.00 0.00 0.00 0.00 0.00 0.00 0.00 0.00 0.00 0.00 0.00 0.00 0.00 0.00 0.00 0.00 0.00 0.00 0.00 0.00 0.00 0.00 0.00 0.00 0.00 0.01 0.00 0.00 0.01 0.01 0.02 0.02 0.03 0.03
0.00 0.00 0.00 0.00 0.00 0.00 0.00 0.00 0.00 0.00 0.00 0.00 0.00 0.00 0.00 0.00 0.00 0.00 0.00 0.00 0.00 0.00 0.00 0.00 0.00 0.00 0.00 0.00 0.00 0.00 0.00 0.00 0.00 0.00 0.00 0.00 0.00 0.01 0.01 0.01 0.02 0.03 0.02
0.00 0.00 0.00 0.00 0.00 0.00 0.00 0.00 0.00 0.00 0.00 0.00 0.00 0.00 0.00 0.00 0.00 0.00 0.00 0.00 0.00 0.00 0.00 0.00 0.01 0.01 0.01 0.01 0.01 0.01 0.00 0.00 0.00 0.00 0.00 0.00 0.00 0.01 0.01 0.01 0.01 0.02 0.02
0.00 0.00 0.00 0.00 0.00 0.00 0.00 0.00 0.00 0.00 0.00 0.00 0.00 0.00 0.00 0.00 0.00 0.00 0.00 0.00 0.00 0.00 0.00 0.00 0.00 0.01 0.01 0.01 0.01 0.01 0.00 0.00 0.00 0.00 0.00 0.00 0.00 0.00 0.01 0.01 0.01 0.01 0.02
0.00 0.00 0.00 0.00 0.00 0.00 0.00 0.00 0.00 0.00 0.00 0.00 0.00 0.00 0.00 0.00 0.00 0.00 0.00 0.00 0.00 0.00 0.00 0.00 0.00 0.00 0.00 0.00 0.00 0.00 0.00 0.00 0.00 0.00 0.00 0.00 0.00 0.00 0.00 0.00 0.01 0.01 0.01
0.00 0.00 0.00 0.00 0.00 0.00 0.00 0.00 0.00 0.00 0.00 0.00 0.00 0.00 0.00 0.00 0.00 0.00 0.00 0.00 0.00 0.00 0.00 0.00 0.00 0.00 0.00 0.00 0.00 0.00 0.00 0.00 0.00 0.00 0.00 0.00 0.00 0.00 0.00 0.00 0.00 0.00 0.01
0.00 0.00 0.00 0.00 0.00 0.00 0.00 0.00 0.00 0.00 0.00 0.00 0.00 0.00 0.00 0.00 0.00 0.00 0.00 0.00 0.00 0.00 0.00 0.00 0.00 0.00 0.00 0.00 0.00 0.00 0.00 0.00 0.00 0.00 0.00 0.00 0.00 0.00 0.00 0.00 0.00 0.00 0.00
0.00 0.00 0.00 0.00 0.00 0.00 0.00 0.00 0.00 0.00 0.00 0.00 0.00 0.00 0.00 0.00 0.00 0.00 0.00 0.00 0.00 0.00 0.00 0.00 0.00 0.00 0.00 0.00 0.00 0.00 0.00 0.00 0.00 0.00 0.00 0.00 0.00 0.00 0.00 0.00 0.00 0.00 0.00
0.00 0.00 0.00 0.00 0.00 0.00 0.00 0.00 0.00 0.00 0.00 0.00 0.00 0.00 0.00 0.00 0.00 0.00 0.00 0.00 0.00 0.00 0.00 0.00 0.00 0.00 0.00 0.00 0.00 0.00 0.00 0.00 0.00 0.00 0.00 0.00 0.00 0.00 0.01 0.01 0.01 0.01 0.01
0.00 0.00 0.00 0.00 0.00 0.00 0.00 0.00 0.00 0.00 0.00 0.00 0.00 0.00 0.00 0.00 0.00 0.00 0.00 0.00 0.00 0.00 0.00 0.00 0.00 0.00 0.00 0.00 0.00 0.00 0.00 0.00 0.00 0.00 0.00 0.00 0.00 0.01 0.01 0.01 0.01 0.01 0.01
MSLP
1012.13 1012.45 1012.75 1013.00 1013.19 1013.32 1013.41 1013.46 1013.50 1013.54 1013.61 1013.69 1013.78 1013.87 1013.94 1013.97 1013.95 1013.91 1013.82 1013.73 1013.63 1013.53 1013.44 1013.36 1013.27 1013.16 1013.02 1012.84 1012.61 1012.35 1012.07 1011.77 1011.47 1011.19 1010.94 1010.71 1010.50 1010.33 1010.19 1010.08 1010.01 1010.00 1010.06
1011.67 1011.99 1012.29 1012.56 1012.78 1012.94 1013.06 1013.15 1013.22 1013.30 1013.37 1013.46 1013.55 1013.63 1013.68 1013.70 1013.68 1013.63 1013.54 1013.44 1013.33 1013.23 1013.13 1013.04 1012.95 1012.84 1012.72 1012.57 1012.39 1012.18 1011.94 1011.69 1011.43 1011.18 1010.93 1010.69 1010.47 1010.26 1010.08 1009.93 1009.83 1009.79 1009.81
1011.22 1011.56 1011.87 1012.16 1012.39 1012.58 1012.73 1012.84 1012.93 1013.01 1013.10 1013.19 1013.27 1013.34 1013.39 1013.40 1013.38 1013.33 1013.24 1013.14 1013.04 1012.93 1012.83 1012.74 1012.65 1012.55 1012.45 1012.33 1012.18 1012.02 1011.83 1011.62 1011.40 1011.17 1010.93 1010.69 1010.44 1010.21 1010.00 1009.81 1009.67 1009.57 1009.55
1010.77 1011.13 1011.47 1011.77 1012.02 1012.22 1012.37 1012.49 1012.58 1012.67 1012.76 1012.84 1012.92 1012.98 1013.03 1013.05 1013.03 1012.99 1012.92 1012.83 1012.73 1012.63 1012.54 1012.46 1012.37 1012.29 1012.21 1012.12 1012.01 1011.88 1011.73 1011.56 1011.37 1011.16 1010.92 1010.68 1010.42 1010.17 1009.92 1009.70 1009.51 1009.36 1009.26
1010.30 1010.70 1011.06 1011.37 1011.63 1011.82 1011.97 1012.08 1012.17 1012.25 1012.32 1012.40 1012.47 1012.54 1012.58 1012.61 1012.61 1012.58 1012.54 1012.47 1012.39 1012.32 1012.24 1012.17 1012.11 1012.05 1011.99 1011.92 1011.83 1011.73 1011.61 1011.47 1011.30 1011.10 1010.88 1010.64 1010.37 1010.10 1009.83 1009.57 1009.33 1009.13 1008.96
1009.79 1010.23 1010.62 1010.94 1011.19 1011.38 1011.52 1011.61 1011.69 1011.75 1011.81 1011.87 1011.94 1012.00 1012.04 1012.08 1012.09 1012.09 1012.06 1012.02 1011.98 1011.93 1011.89 1011.85 1011.81 1011.78 1011.74 1011.69 1011.63 1011.55 1011.45 1011.32 1011.16 1010.98 1010.76 1010.52 1010.26 1009.97 1009.69 1009.40 1009.13 1008.87 1008.64
1009.24 1009.72 1010.13 1010.46 1010.71 1010.88 1011.01 1011.09 1011.15 1011.19 1011.24 1011.29 1011.33 1011.38 1011.42 1011.45 1011.47 1011.48 1011.47 1011.46 1011.45 1011.44 1011.43 1011.43 1011.43 1011.43 1011.42 1011.39 1011.35 1011.28 1011.19 1011.07 1010.92 1010.75 1010.54 1010.30 1010.04 1009.76 1009.47 1009.17 1008.88 1008.59 1008.32
1008.66 1009.17 1009.59 1009.93 1010.18 1010.36 1010.48 1010.55 1010.60 1010.64 1010.67 1010.70 1010.72 1010.75 1010.76 1010.77 1010.78 1010.78 1010.78 1010.78 1010.79 1010.82 1010.85 1010.89 1010.93 1010.97 1010.99 1010.99 1010.97 1010.92 1010.84 1010.72 1010.57 1010.40 1010.19 1009.96 1009.71 1009.45 1009.17 1008.88 1008.58 1008.29 1008.00
1008.08 1008.60 1009.04 1009.39 1009.65 1009.84 1009.97 1010.05 1010.11 1010.14 1010.16 1010.17 1010.17 1010.15 1010.13 1010.10 1010.06 1010.03 1010.01 1010.01 1010.04 1010.08 1010.15 1010.24 1010.33 1010.41 1010.47 1010.51 1010.51 1010.47 1010.40 1010.28 1010.13 1009.95 1009.75 1009.52 1009.28 1009.03 1008.77 1008.51 1008.24 1007.96 1007.69
1007.53 1008.06 1008.51 1008.87 1009.16 1009.38 1009.54 1009.65 1009.73 1009.77 1009.79 1009.78 1009.74 1009.68 1009.59 1009.50 1009.40 1009.31 1009.26 1009.23 1009.25 1009.31 1009.41 1009.54 1009.68 1009.81 1009.92 1009.99 1010.02 1010.00 1009.92 1009.80 1009.64 1009.45 1009.24 1009.01 1008.78 1008.55 1008.31 1008.08 1007.85 1007.61 1007.38
1007.05 1007.58 1008.04 1008.43 1008.75 1009.01 1009.22 1009.38 1009.50 1009.57 1009.60 1009.57 1009.50 1009.38 1009.22 1009.05 1008.87 1008.71 1008.60 1008.53 1008.53 1008.60 1008.72 1008.88 1009.06 1009.24 1009.40 1009.51 1009.56 1009.55 1009.47 1009.34 1009.16 1008.95 1008.72 1008.48 1008.25 1008.02 1007.81 1007.61 1007.42 1007.24 1007.07
1006.66 1007.18 1007.65 1008.07 1008.44 1008.76 1009.03 1009.25 1009.43 1009.54 1009.58 1009.55 1009.45 1009.27 1009.05 1008.80 1008.54 1008.30 1008.12 1008.01 1007.98 1008.04 1008.17 1008.36 1008.59 1008.81 1009.00 1009.14 1009.21 1009.21 1009.12 1008.97 1008.76 1008.52 1008.26 1007.99 1007.74 1007.52 1007.32 1007.14 1006.99 1006.86 1006.74
1006.34 1006.86 1007.35 1007.81 1008.23 1008.61 1008.95 1009.25 1009.48 1009.64 1009.72 1009.70 1009.57 1009.36 1009.08 1008.76 1008.43 1008.13 1007.89 1007.73 1007.67 1007.72 1007.86 1008.07 1008.32 1008.57 1008.80 1008.96 1009.04 1009.02 1008.92 1008.74 1008.49 1008.21 1007.90 1007.60 1007.32 1007.08 1006.87 1006.71 1006.58 1006.47 1006.39
1006.07 1006.60 1007.12 1007.61 1008.08 1008.53 1008.94 1009.31 1009.61 1009.83 1009.94 1009.94 1009.82 1009.59 1009.28 1008.92 1008.54 1008.20 1007.91 1007.72 1007.64 1007.68 1007.82 1008.04 1008.30 1008.57 1008.81 1008.97 1009.05 1009.02 1008.89 1008.67 1008.38 1008.05 1007.70 1007.35 1007.03 1006.75 1006.53 1006.35 1006.22 1006.13 1006.06
1005.80 1006.36 1006.90 1007.44 1007.96 1008.46 1008.94 1009.37 1009.73 1010.00 1010.16 1010.19 1010.10 1009.89 1009.58 1009.21 1008.83 1008.47 1008.17 1007.97 1007.88 1007.91 1008.05 1008.27 1008.53 1008.80 1009.03 1009.18 1009.24 1009.19 1009.03 1008.77 1008.44 1008.06 1007.65 1007.26 1006.90 1006.58 1006.32 1006.12 1005.96 1005.86 1005.78
1005.49 1006.08 1006.67 1007.24 1007.80 1008.35 1008.88 1009.36 1009.77 1010.09 1010.30 1010.38 1010.33 1010.16 1009.90 1009.56 1009.21 1008.87 1008.59 1008.40 1008.32 1008.36 1008.49 1008.69 1008.94 1009.19 1009.39 1009.52 1009.55 1009.47 1009.28 1008.99 1008.63 1008.21 1007.77 1007.34 1006.95 1006.59 1006.29 1006.05 1005.86 1005.71 1005.59
1005.13 1005.76 1006.37 1006.98 1007.57 1008.16 1008.71 1009.23 1009.68 1010.04 1010.31 1010.45 1010.46 1010.36 1010.16 1009.90 1009.60 1009.32 1009.09 1008.93 1008.87 1008.91 1009.03 1009.22 1009.44 1009.65 1009.83 1009.92 1009.92 1009.81 1009.60 1009.29 1008.90 1008.47 1008.02 1007.58 1007.16 1006.78 1006.44 1006.16 1005.92 1005.71 1005.53
1004.69 1005.36 1006.01 1006.64 1007.26 1007.86 1008.43 1008.97 1009.45 1009.85 1010.16 1010.36 1010.45 1010.43 1010.33 1010.16 1009.95 1009.75 1009.58 1009.46 1009.43 1009.48 1009.59 1009.75 1009.94 1010.11 1010.24 1010.30 1010.27 1010.14 1009.91 1009.60 1009.23 1008.80 1008.36 1007.92 1007.50 1007.11 1006.75 1006.43 1006.14 1005.87 1005.61
1004.20 1004.91 1005.59 1006.25 1006.87 1007.48 1008.06 1008.60 1009.10 1009.53 1009.89 1010.15 1010.32 1010.39 1010.38 1010.31 1010.20 1010.09 1009.99 1009.92 1009.92 1009.97 1010.07 1010.21 1010.35 1010.48 1010.57 1010.60 1010.55 1010.41 1010.19 1009.89 1009.55 1009.16 1008.75 1008.34 1007.93 1007.55 1007.18 1006.83 1006.49 1006.15 1005.82
1003.72 1004.45 1005.15 1005.82 1006.45 1007.05 1007.63 1008.17 1008.68 1009.14 1009.53 1009.85 1010.09 1010.25 1010.33 1010.36 1010.34 1010.31 1010.28 1010.27 1010.29 1010.34 1010.43 1010.53 1010.64 1010.73 1010.79 1010.79 1010.73 1010.60 1010.40 1010.14 1009.83 1009.49 1009.13 1008.77 1008.40 1008.03 1007.66 1007.29 1006.91 1006.52 1006.11
1003.28 1004.03 1004.74 1005.41 1006.03 1006.63 1007.20 1007.74 1008.25 1008.73 1009.15 1009.52 1009.82 1010.05 1010.21 1010.32 1010.39 1010.42 1010.45 1010.47 1010.51 1010.57 1010.64 1010.73 1010.81 1010.87 1010.90 1010.89 1010.83 1010.71 1010.54 1010.32 1010.07 1009.78 1009.48 1009.16 1008.83 1008.49 1008.13 1007.75 1007.34 1006.89 1006.42
1002.96 1003.70 1004.40 1005.06 1005.67 1006.26 1006.82 1007.36 1007.88 1008.36 1008.80 1009.20 1009.55 1009.83 1010.06 1010.23 1010.35 1010.44 1010.51 1010.56 1010.62 1010.68 1010.74 1010.81 1010.87 1010.91 1010.93 1010.92 1010.87 1010.77 1010.64 1010.46 1010.25 1010.01 1009.76 1009.48 1009.18 1008.86 1008.50 1008.12 1007.69 1007.21 1006.69
1002.77 1003.49 1004.17 1004.81 1005.41 1005.99 1006.54 1007.07 1007.59 1008.07 1008.53 1008.95 1009.32 1009.63 1009.90 1010.11 1010.27 1010.39 1010.48 1010.56 1010.63 1010.69 1010.75 1010.81 1010.87 1010.91 1010.93 1010.93 1010.89 1010.81 1010.70 1010.56 1010.38 1010.18 1009.95 1009.69 1009.41 1009.09 1008.74 1008.35 1007.91 1007.42 1006.88
1002.75 1003.42 1004.07 1004.68 1005.27 1005.83 1006.37 1006.89 1007.40 1007.89 1008.34 1008.77 1009.15 1009.48 1009.75 1009.98 1010.16 1010.30 1010.41 1010.50 1010.58 1010.66 1010.73 1010.80 1010.86 1010.91 1010.94 1010.94 1010.92 1010.86 1010.76 1010.63 1010.46 1010.26 1010.04 1009.78 1009.50 1009.18 1008.83 1008.43 1007.99 1007.50 1006.95
1002.86 1003.49 1004.09 1004.67 1005.23 1005.77 1006.30 1006.82 1007.31 1007.79 1008.24 1008.66 1009.03 1009.36 1009.64 1009.87 1010.06 1010.21 1010.33 1010.43 1010.52 1010.61 1010.70 1010.78 1010.86 1010.92 1010.97 1010.98 1010.96 1010.91 1010.81 1010.67 1010.49 1010.28 1010.03 1009.76 1009.46 1009.13 1008.76 1008.36 1007.93 1007.45 1006.93
1003.09 1003.66 1004.21 1004.76 1005.29 1005.81 1006.32 1006.82 1007.31 1007.77 1008.21 1008.61 1008.97 1009.29 1009.55 1009.78 1009.96 1010.12 1010.25 1010.36 1010.47 1010.58 1010.69 1010.79 1010.88 1010.96 1011.02 1011.04 1011.02 1010.95 1010.84 1010.67 1010.46 1010.22 1009.93 1009.62 1009.29 1008.94 1008.57 1008.17 1007.75 1007.30 1006.81
Thickness
5716 5711 5706 5701 5697 5693 5689 5685 5682 5680 5677 5674 5671 5669 5668 5666 5664 5662 5661 5660 5660 5661 5662 5662 5662 5662 5665 5667 5669 5671 5672 5673 5674 5681 5687 5691 5693 5696 5700 5703 5706 5709 5713
5717 5712 5707 5703 5698 5694 5691 5687 5684 5681 5678 5675 5673 5670 5668 5665 5664 5662 5660 5659 5658 5658 5659 5659 5659 5660 5660 5662 5664 5666 5668 5669 5670 5672 5678 5682 5685 5689 5692 5695 5699 5704 5706
5718 5713 5709 5705 5700 5695 5692 5688 5685 5682 5679 5676 5673 5670 5668 5666 5664 5662 5661 5660 5659 5658 5657 5657 5657 5657 5657 5659 5659 5660 5662 5665 5666 5666 5670 5674 5677 5682 5684 5688 5692 5696 5699
5719 5713 5709 5706 5701 5697 5693 5689 5685 5683 5680 5677 5674 5671 5669 5666 5664 5663 5661 5660 5659 5658 5656 5655 5655 5655 5655 5655 5656 5657 5658 5659 5660 5661 5663 5666 5670 5674 5676 5678 5683 5688 5691
5720 5715 5712 5708 5703 5698 5693 5689 5686 5682 5680 5678 5675 5672 5670 5667 5665 5663 5661 5660 5659 5658 5657 5656 5655 5652 5650 5650 5652 5653 5654 5654 5656 5656 5657 5659 5662 5664 5667 5671 5673 5677 5683
5722 5717 5713 5708 5703 5698 5694 5690 5687 5683 5680 5678 5675 5672 5670 5668 5663 5659 5657 5659 5659 5658 5656 5655 5654 5652 5650 5647 5647 5647 5647 5649 5651 5652 5653 5654 5656 5658 5660 5661 5664 5666 5670
5723 5719 5713 5708 5703 5699 5695 5691 5687 5684 5681 5678 5676 5673 5671 5670 5663 5659 5656 5657 5659 5659 5657 5656 5654 5653 5649 5650 5649 5646 5647 5646 5644 5647 5648 5649 5651 5654 5654 5655 5657 5658 5661
5724 5719 5714 5708 5704 5699 5695 5691 5688 5686 5683 5679 5677 5675 5672 5670 5664 5660 5657 5658 5660 5660 5658 5656 5654 5653 5650 5648 5648 5648 5648 5649 5647 5646 5647 5647 5648 5649 5650 5650 5651 5653 5657
5723 5719 5715 5709 5704 5699 5695 5691 5689 5686 5683 5681 5679 5676 5673 5672 5666 5661 5657 5661 5662 5661 5659 5656 5653 5651 5647 5643 5644 5645 5646 5646 5645 5642 5641 5642 5642 5643 5643 5645 5646 5647 5650
5723 5719 5716 5711 5704 5699 5696 5693 5690 5685 5682 5680 5678 5676 5674 5672 5667 5662 5657 5662 5662 5662 5659 5657 5650 5647 5644 5641 5642 5643 5643 5643 5643 5643 5641 5641 5642 5643 5642 5642 5644 5643 5645
5723 5718 5713 5708 5703 5699 5695 5691 5688 5685 5681 5679 5677 5676 5674 5670 5667 5661 5657 5659 5660 5660 5658 5656 5653 5645 5641 5639 5638 5640 5639 5637 5639 5639 5639 5640 5641 5642 5642 5642 5642 5641 5642
5718 5713 5709 5705 5701 5697 5691 5688 5686 5682 5679 5677 5675 5674 5672 5670 5663 5660 5656 5654 5653 5655 5654 5653 5649 5641 5638 5636 5636 5635 5633 5633 5635 5635 5635 5636 5636 5638 5638 5639 5640 5639 5640
5713 5708 5705 5701 5697 5693 5689 5685 5682 5679 5677 5675 5672 5669 5668 5666 5663 5657 5654 5652 5649 5649 5649 5644 5640 5636 5634 5634 5631 5630 5630 5632 5632 5631 5631 5631 5632 5632 5633 5634 5635 5636 5636
5709 5705 5701 5697 5693 5689 5684 5682 5678 5675 5672 5669 5666 5663 5662 5660 5657 5655 5654 5653 5647 5646 5644 5639 5633 5631 5630 5628 5628 5628 5628 5628 5626 5626 5626 5626 5626 5627 5627 5628 5629 5630 5630
5706 5700 5697 5692 5689 5683 5678 5672 5670 5664 5662 5659 5658 5656 5653 5651 5646 5641 5643 5645 5644 5642 5639 5636 5632 5629 5626 5625 5623 5622 5620 5620 5619 5619 5619 5620 5620 5621 5621 5622 5622 5623 5623
5701 5696 5691 5686 5681 5676 5670 5662 5654 5652 5647 5645 5643 5643 5643 5637 5635 5634 5633 5631 5630 5629 5629 5627 5623 5620 5617 5615 5614 5613 5612 5611 5610 5610 5610 5610 5611 5612 5613 5614 5614 5615 5616
5695 5690 5685 5680 5675 5671 5666 5661 5653 5644 5638 5636 5634 5632 5630 5628 5626 5625 5624 5622 5621 5620 5620 5617 5613 5609 5606 5605 5603 5603 5602 5602 5601 5601 5601 5601 5602 5603 5604 5605 5606 5606 5607
5688 5682 5677 5673 5669 5666 5662 5658 5653 5648 5643 5636 5627 5623 5621 5619 5618 5616 5615 5615 5614 5611 5608 5605 5601 5598 5595 5594 5592 5591 5591 5591 5591 5591 5592 5592 5592 5592 5594 5595 5596 5595 5597
5679 5674 5670 5666 5661 5658 5653 5649 5645 5640 5636 5631 5626 5618 5612 5610 5608 5606 5607 5607 5605 5600 5597 5593 5590 5587 5585 5584 5582 5581 5581 5580 5580 5580 5581 5580 5580 5581 5582 5582 5584 5584 5585
5670 5664 5660 5657 5653 5648 5644 5640 5636 5632 5628 5623 5619 5614 5609 5607 5605 5601 5598 5595 5593 5589 5586 5583 5579 5576 5575 5574 5572 5571 5571 5571 5570 5569 5568 5568 5568 5568 5569 5570 5571 5572 5573
5660 5653 5648 5647 5644 5640 5636 5632 5627 5623 5618 5613 5608 5600 5595 5597 5594 5590 5587 5584 5581 5578 5574 5571 5569 5566 5564 5563 5562 5561 5560 5560 5558 5557 5557 5556 5556 5556 5556 5556 5557 5558 5559
5652 5646 5642 5639 5634 5630 5626 5622 5617 5613 5608 5602 5596 5590 5582 5585 5583 5579 5576 5572 5568 5565 5562 5559 5558 5555 5552 5551 5550 5549 5549 5548 5546 5545 5544 5543 5543 5543 5543 5543 5543 5544 5544
5642 5637 5633 5628 5623 5617 5614 5611 5606 5602 5598 5593 5588 5583 5578 5575 5572 5568 5564 5560 5556 5553 5550 5547 5546 5543 5541 5539 5537 5535 5535 5533 5531 5529 5529 5529 5529 5529 5528 5528 5528 5528 5528
5630 5626 5622 5617 5612 5607 5604 5600 5595 5591 5586 5582 5577 5573 5569 5564 5560 5556 5552 5548 5545 5542 5539 5536 5534 5531 5529 5526 5524 5522 5519 5516 5514 5514 5514 5513 5513 5513 5513 5513 5512 5512 5512
5617 5613 5609 5605 5600 5596 5592 5588 5584 5580 5575 5571 5566 5562 5557 5553 5549 5545 5541 5537 5533 5530 5527 5524 5522 5520 5517 5514 5512 5509 5505 5501 5499 5498 5498 5499 5499 5499 5498 5498 5497 5496 5496
5602 5599 5596 5592 5588 5584 5580 5576 5572 5568 5563 5559 5555 5550 5546 5542 5538 5534 5529 5525 5522 5519 5516 5513 5510 5508 5505 5502 5499 5495 5492 5489 5487 5485 5484 5485 5485 5485 5483 5482 5482 5481 5480